Time,TemperatureF,DewpointF,PressureIn,WindDirection,WindDirectionDegrees,WindSpeedMPH,WindSpeedGustMPH,Humidity,HourlyPrecipIn,Conditions,Clouds,dailyrainin,SoftwareType,DateUTC
2013-09-23 00:01:00,49.8,49.5,29.98,NW,315,15.9,19.0,99,0.00,,,0.01,pywws,2013-09-22 22:01:00,
2013-09-23 00:11:00,49.8,49.5,29.98,NW,315,15.9,26.0,99,0.00,,,0.00,pywws,2013-09-22 22:11:00,
2013-09-23 00:21:00,50.0,49.7,29.97,NW,315,17.5,25.0,99,0.00,,,0.00,pywws,2013-09-22 22:21:00,
2013-09-23 00:31:00,50.0,49.7,29.97,NW,315,16.8,22.1,99,0.00,,,0.00,pywws,2013-09-22 22:31:00,
2013-09-23 00:41:00,50.2,49.9,29.98,NW,315,19.0,26.0,99,0.00,,,0.00,pywws,2013-09-22 22:41:00,
2013-09-23 00:51:00,50.2,49.9,29.97,NW,315,16.8,26.6,99,0.00,,,0.00,pywws,2013-09-22 22:51:00,
2013-09-23 01:01:00,50.4,50.1,29.97,NW,315,19.0,29.8,99,0.00,,,0.00,pywws,2013-09-22 23:01:00,
2013-09-23 01:11:00,50.4,50.1,29.97,NW,315,15.9,21.2,99,0.00,,,0.00,pywws,2013-09-22 23:11:00,
2013-09-23 01:21:00,50.4,50.1,29.97,NW,315,15.2,19.7,99,0.00,,,0.00,pywws,2013-09-22 23:21:00,
2013-09-23 01:31:00,50.4,50.1,29.97,NW,315,14.5,18.3,99,0.00,,,0.00,pywws,2013-09-22 23:31:00,
2013-09-23 01:41:00,50.4,50.1,29.97,NW,315,14.5,20.6,99,0.00,,,0.00,pywws,2013-09-22 23:41:00,
2013-09-23 01:51:00,50.4,50.1,29.96,NW,315,14.5,18.3,99,0.00,,,0.00,pywws,2013-09-22 23:51:00,
2013-09-23 02:01:00,50.2,49.9,29.96,NW,315,17.5,22.8,99,0.00,,,0.00,pywws,2013-09-23 00:01:00,
2013-09-23 02:11:00,50.4,50.1,29.96,NW,315,16.8,21.2,99,0.00,,,0.00,pywws,2013-09-23 00:11:00,
2013-09-23 02:21:00,50.4,50.1,29.96,NW,315,17.5,22.1,99,0.00,,,0.00,pywws,2013-09-23 00:21:00,
2013-09-23 02:31:00,50.4,50.1,29.96,NW,315,16.8,21.2,99,0.01,,,0.01,pywws,2013-09-23 00:31:00,
2013-09-23 02:41:00,50.4,50.1,29.95,NW,315,19.0,25.0,99,0.01,,,0.01,pywws,2013-09-23 00:41:00,
2013-09-23 02:51:00,50.4,50.1,29.96,NW,315,13.0,16.8,99,0.01,,,0.01,pywws,2013-09-23 00:51:00,
2013-09-23 03:01:00,50.5,50.3,29.95,NW,315,15.9,23.5,99,0.01,,,0.01,pywws,2013-09-23 01:01:00,
2013-09-23 03:11:00,50.5,50.3,29.94,NW,315,15.2,20.6,99,0.01,,,0.01,pywws,2013-09-23 01:11:00,
2013-09-23 03:21:00,50.5,50.3,29.94,NW,315,16.8,22.1,99,0.01,,,0.01,pywws,2013-09-23 01:21:00,
2013-09-23 03:31:00,51.3,51.0,29.94,NW,315,13.0,16.8,99,0.00,,,0.01,pywws,2013-09-23 01:31:00,
2013-09-23 03:41:00,50.9,50.6,29.94,NW,315,17.5,23.5,99,0.00,,,0.01,pywws,2013-09-23 01:41:00,
2013-09-23 03:51:00,50.9,50.6,29.94,NW,315,17.5,22.8,99,0.00,,,0.01,pywws,2013-09-23 01:51:00,
2013-09-23 04:01:00,50.7,50.4,29.93,NW,315,18.3,26.0,99,0.00,,,0.01,pywws,2013-09-23 02:01:00,
2013-09-23 04:11:00,50.7,50.4,29.93,NW,315,16.8,23.5,99,0.00,,,0.01,pywws,2013-09-23 02:11:00,
2013-09-23 04:21:00,50.5,50.3,29.93,NW,315,18.3,25.0,99,0.00,,,0.01,pywws,2013-09-23 02:21:00,
2013-09-23 04:31:00,50.4,50.1,29.93,NW,315,18.3,22.8,99,0.00,,,0.01,pywws,2013-09-23 02:31:00,
2013-09-23 04:41:00,50.2,49.9,29.92,NW,315,22.1,28.9,99,0.00,,,0.01,pywws,2013-09-23 02:41:00,
2013-09-23 04:51:00,50.2,49.9,29.92,NW,315,19.7,23.5,99,0.00,,,0.01,pywws,2013-09-23 02:51:00,
2013-09-23 05:01:00,50.2,49.9,29.92,NW,315,19.7,27.3,99,0.00,,,0.01,pywws,2013-09-23 03:01:00,
2013-09-23 05:11:00,50.4,50.1,29.93,NW,315,15.2,19.0,99,0.00,,,0.01,pywws,2013-09-23 03:11:00,
2013-09-23 05:21:00,50.4,50.1,29.94,NW,315,17.5,26.0,99,0.00,,,0.01,pywws,2013-09-23 03:21:00,
2013-09-23 05:31:00,50.4,50.1,29.94,NW,315,14.5,19.0,99,0.00,,,0.01,pywws,2013-09-23 03:31:00,
2013-09-23 05:41:00,50.4,50.1,29.94,NW,315,15.2,22.8,99,0.00,,,0.01,pywws,2013-09-23 03:41:00,
2013-09-23 05:51:00,50.4,50.1,29.95,NW,315,15.9,22.1,99,0.00,,,0.01,pywws,2013-09-23 03:51:00,
2013-09-23 06:01:00,50.4,50.1,29.94,NW,315,13.0,18.3,99,0.00,,,0.01,pywws,2013-09-23 04:01:00,
2013-09-23 06:11:00,50.4,50.1,29.95,NW,315,14.5,19.0,99,0.00,,,0.01,pywws,2013-09-23 04:11:00,
2013-09-23 06:21:00,50.4,50.1,29.95,NW,315,13.0,19.0,99,0.00,,,0.01,pywws,2013-09-23 04:21:00,
2013-09-23 06:31:00,50.4,50.1,29.94,NW,315,13.0,16.8,99,0.00,,,0.01,pywws,2013-09-23 04:31:00,
2013-09-23 06:41:00,50.5,50.3,29.94,NW,315,13.6,18.3,99,0.00,,,0.01,pywws,2013-09-23 04:41:00,
2013-09-23 06:51:00,50.4,50.1,29.93,NW,315,14.5,22.1,99,0.00,,,0.01,pywws,2013-09-23 04:51:00,
2013-09-23 07:01:00,50.4,50.1,29.93,NW,315,15.9,20.6,99,0.00,,,0.01,pywws,2013-09-23 05:01:00,
2013-09-23 07:11:00,50.4,50.1,29.93,NW,315,17.5,22.1,99,0.00,,,0.01,pywws,2013-09-23 05:11:00,
2013-09-23 07:21:00,50.4,50.1,29.93,NW,315,17.5,23.5,99,0.00,,,0.01,pywws,2013-09-23 05:21:00,
2013-09-23 07:41:00,50.4,50.1,29.94,NW,315,15.2,23.5,99,0.00,,,0.01,pywws,2013-09-23 05:41:00,
2013-09-23 07:51:00,50.4,50.1,29.94,NW,315,15.9,22.8,99,0.00,,,0.01,pywws,2013-09-23 05:51:00,
2013-09-23 08:01:00,50.4,50.1,29.95,NW,315,15.9,25.0,99,0.00,,,0.01,pywws,2013-09-23 06:01:00,
2013-09-23 08:11:00,50.4,50.1,29.95,NW,315,15.2,22.8,99,0.00,,,0.01,pywws,2013-09-23 06:11:00,
2013-09-23 08:21:00,50.4,50.1,29.95,NW,315,12.1,17.5,99,0.00,,,0.01,pywws,2013-09-23 06:21:00,
2013-09-23 08:31:00,49.5,49.2,29.95,NW,315,13.6,19.7,99,0.00,,,0.01,pywws,2013-09-23 06:31:00,
2013-09-23 08:41:00,50.4,50.1,29.95,NW,315,12.1,19.7,99,0.00,,,0.01,pywws,2013-09-23 06:41:00,
2013-09-23 08:51:00,50.4,50.1,29.95,NW,315,13.0,19.7,99,0.01,,,0.02,pywws,2013-09-23 06:51:00,
2013-09-23 09:01:00,50.4,50.1,29.95,NW,315,13.6,19.0,99,0.01,,,0.02,pywws,2013-09-23 07:01:00,
2013-09-23 09:11:00,50.4,50.1,29.95,NW,315,14.5,20.6,99,0.01,,,0.02,pywws,2013-09-23 07:11:00,
2013-09-23 09:21:00,50.4,50.1,29.95,NW,315,15.9,23.5,99,0.02,,,0.04,pywws,2013-09-23 07:21:00,
2013-09-23 09:31:00,50.4,50.1,29.96,NW,315,12.1,15.9,99,0.02,,,0.04,pywws,2013-09-23 07:31:00,
2013-09-23 09:41:00,50.4,50.1,29.96,NW,315,14.5,21.2,99,0.02,,,0.04,pywws,2013-09-23 07:41:00,
2013-09-23 09:52:00,50.4,50.1,29.95,NW,315,13.6,16.8,99,0.01,,,0.04,pywws,2013-09-23 07:52:00,
2013-09-23 10:01:00,50.4,50.1,29.95,NW,315,19.0,24.4,99,0.01,,,0.04,pywws,2013-09-23 08:01:00,
2013-09-23 10:11:00,50.5,50.3,29.95,NW,315,15.2,22.1,99,0.01,,,0.04,pywws,2013-09-23 08:11:00,
2013-09-23 10:21:00,50.4,50.1,29.94,NW,315,15.9,22.1,99,0.00,,,0.04,pywws,2013-09-23 08:21:00,
2013-09-23 10:31:00,50.4,50.1,29.95,NW,315,13.6,17.5,99,0.00,,,0.04,pywws,2013-09-23 08:31:00,
2013-09-23 10:41:00,50.4,50.1,29.94,NW,315,16.8,22.1,99,0.00,,,0.04,pywws,2013-09-23 08:41:00,
2013-09-23 10:51:00,50.5,50.3,29.94,NW,315,15.2,19.7,99,0.00,,,0.04,pywws,2013-09-23 08:51:00,
2013-09-23 11:01:00,50.7,50.4,29.94,NW,315,15.9,21.2,99,0.00,,,0.04,pywws,2013-09-23 09:01:00,
2013-09-23 11:11:00,51.3,51.0,29.94,NW,315,13.6,18.3,99,0.00,,,0.04,pywws,2013-09-23 09:11:00,
2013-09-23 11:21:00,50.4,50.1,29.94,NW,315,14.5,20.6,99,0.05,,,0.08,pywws,2013-09-23 09:21:00,
2013-09-23 11:31:00,50.7,50.4,29.93,NW,315,14.5,22.8,99,0.05,,,0.08,pywws,2013-09-23 09:31:00,
2013-09-23 11:41:00,50.5,50.3,29.94,NW,315,15.9,24.4,99,0.05,,,0.08,pywws,2013-09-23 09:41:00,
2013-09-23 11:51:00,50.7,50.4,29.93,NW,315,15.9,21.2,99,0.05,,,0.08,pywws,2013-09-23 09:51:00,
2013-09-23 12:01:00,50.5,50.3,29.93,NW,315,16.8,20.6,99,0.05,,,0.08,pywws,2013-09-23 10:01:00,
2013-09-23 12:11:00,51.1,50.8,29.93,NW,315,14.5,19.0,99,0.05,,,0.08,pywws,2013-09-23 10:11:00,
2013-09-23 12:21:00,51.1,50.8,29.94,NW,315,14.5,19.7,99,0.00,,,0.08,pywws,2013-09-23 10:21:00,
2013-09-23 12:31:00,51.4,51.2,29.93,NW,315,18.3,22.8,99,0.00,,,0.08,pywws,2013-09-23 10:31:00,
2013-09-23 12:41:00,51.6,51.3,29.94,NW,315,13.6,18.3,99,0.00,,,0.08,pywws,2013-09-23 10:41:00,
2013-09-23 12:51:00,51.6,51.3,29.93,NW,315,14.5,19.7,99,0.00,,,0.08,pywws,2013-09-23 10:51:00,
2013-09-23 13:01:00,52.0,51.7,29.94,NW,315,15.2,19.0,99,0.00,,,0.08,pywws,2013-09-23 11:01:00,
2013-09-23 13:11:00,52.0,51.7,29.94,NW,315,15.2,19.0,99,0.00,,,0.08,pywws,2013-09-23 11:11:00,
2013-09-23 13:21:00,52.3,52.1,29.93,NW,315,15.9,23.5,99,0.00,,,0.08,pywws,2013-09-23 11:21:00,
2013-09-23 13:31:00,52.0,51.7,29.94,NW,315,15.9,25.0,99,0.00,,,0.08,pywws,2013-09-23 11:31:00,
2013-09-23 13:41:00,53.1,52.8,29.93,NW,315,17.5,22.8,99,0.00,,,0.08,pywws,2013-09-23 11:41:00,
2013-09-23 13:51:00,54.1,53.9,29.93,West,270,14.5,19.0,99,0.00,,,0.08,pywws,2013-09-23 11:51:00,
2013-09-23 14:01:00,53.8,53.5,29.93,NW,315,16.8,24.4,99,0.00,,,0.08,pywws,2013-09-23 12:01:00,
2013-09-23 14:11:00,53.8,53.5,29.93,NW,315,16.8,24.4,99,0.00,,,0.08,pywws,2013-09-23 12:11:00,
2013-09-23 14:21:00,54.9,54.6,29.93,NW,315,14.5,18.3,99,0.00,,,0.08,pywws,2013-09-23 12:21:00,
2013-09-23 14:31:00,53.2,53.0,29.94,NW,315,13.0,19.7,99,0.00,,,0.08,pywws,2013-09-23 12:31:00,
2013-09-23 14:41:00,53.6,53.3,29.93,NW,315,13.6,17.5,99,0.00,,,0.08,pywws,2013-09-23 12:41:00,
2013-09-23 14:51:00,55.4,55.1,29.93,West,270,13.0,18.3,99,0.00,,,0.08,pywws,2013-09-23 12:51:00,
2013-09-23 15:01:00,54.9,54.6,29.93,NW,315,15.9,22.8,99,0.00,,,0.08,pywws,2013-09-23 13:01:00,
2013-09-23 15:11:00,53.2,53.0,29.93,NW,315,17.5,20.6,99,0.00,,,0.08,pywws,2013-09-23 13:11:00,
2013-09-23 15:21:00,55.2,54.9,29.92,NW,315,18.3,23.5,99,0.00,,,0.08,pywws,2013-09-23 13:21:00,
2013-09-23 15:31:00,55.6,55.3,29.92,NW,315,15.2,19.7,99,0.00,,,0.08,pywws,2013-09-23 13:31:00,
2013-09-23 15:41:00,54.7,54.4,29.92,NW,315,15.2,18.3,99,0.00,,,0.08,pywws,2013-09-23 13:41:00,
2013-09-23 15:51:00,55.0,54.8,29.91,NW,315,15.2,20.6,99,0.00,,,0.08,pywws,2013-09-23 13:51:00,
2013-09-23 16:01:00,54.3,54.0,29.91,NW,315,14.5,19.7,99,0.00,,,0.08,pywws,2013-09-23 14:01:00,
2013-09-23 16:11:00,54.3,54.0,29.91,NW,315,16.8,21.2,99,0.00,,,0.08,pywws,2013-09-23 14:11:00,
2013-09-23 16:21:00,54.1,53.9,29.90,West,270,18.3,25.0,99,0.00,,,0.08,pywws,2013-09-23 14:21:00,
2013-09-23 16:31:00,53.2,53.0,29.91,NW,315,17.5,26.0,99,0.00,,,0.08,pywws,2013-09-23 14:31:00,
2013-09-23 16:41:00,53.1,52.8,29.90,NW,315,19.7,27.3,99,0.00,,,0.08,pywws,2013-09-23 14:41:00,
2013-09-23 16:51:00,52.7,52.4,29.90,NW,315,15.2,21.2,99,0.05,,,0.13,pywws,2013-09-23 14:51:00,
2013-09-23 17:01:00,53.8,53.5,29.90,NW,315,15.2,25.0,99,0.05,,,0.13,pywws,2013-09-23 15:01:00,
2013-09-23 17:11:00,53.6,53.3,29.89,NW,315,18.3,26.6,99,0.05,,,0.13,pywws,2013-09-23 15:11:00,
2013-09-23 17:21:00,54.1,53.9,29.89,WNW,292,18.3,22.1,99,0.05,,,0.13,pywws,2013-09-23 15:21:00,
2013-09-23 17:31:00,52.9,52.6,29.89,NW,315,19.7,26.6,99,0.05,,,0.13,pywws,2013-09-23 15:31:00,
2013-09-23 17:41:00,53.4,53.1,29.88,NW,315,20.6,32.0,99,0.05,,,0.13,pywws,2013-09-23 15:41:00,
2013-09-23 17:51:00,53.6,53.3,29.88,NW,315,20.6,28.2,99,0.06,,,0.19,pywws,2013-09-23 15:51:00,
2013-09-23 18:01:00,53.1,52.8,29.88,NW,315,20.6,31.1,99,0.13,,,0.26,pywws,2013-09-23 16:01:00,
2013-09-23 18:11:00,53.1,52.8,29.88,NW,315,20.6,31.1,99,0.13,,,0.26,pywws,2013-09-23 16:11:00,
2013-09-23 18:21:00,52.5,52.2,29.88,NW,315,17.5,26.0,99,0.14,,,0.27,pywws,2013-09-23 16:21:00,
2013-09-23 18:31:00,51.8,51.5,29.88,NW,315,15.9,24.4,99,0.14,,,0.27,pywws,2013-09-23 16:31:00,
2013-09-23 18:41:00,51.3,51.0,29.88,NW,315,16.8,22.8,99,0.15,,,0.28,pywws,2013-09-23 16:41:00,
2013-09-23 18:51:00,50.9,50.6,29.88,NW,315,15.9,22.1,99,0.11,,,0.30,pywws,2013-09-23 16:51:00,
2013-09-23 19:04:00,50.7,50.4,29.87,NW,315,15.9,19.7,99,0.04,,,0.30,pywws,2013-09-23 17:04:00,
2013-09-23 19:11:00,50.7,50.4,29.88,NW,315,15.2,20.6,99,0.02,,,0.30,pywws,2013-09-23 17:11:00,
2013-09-23 19:21:00,50.7,50.4,29.88,West,270,13.6,18.3,99,0.02,,,0.30,pywws,2013-09-23 17:21:00,
2013-09-23 19:31:00,50.4,50.1,29.88,NW,315,12.1,17.5,99,0.02,,,0.30,pywws,2013-09-23 17:31:00,
2013-09-23 19:41:00,50.4,50.1,29.88,NW,315,13.6,19.0,99,0.01,,,0.30,pywws,2013-09-23 17:41:00,
2013-09-23 19:51:00,50.7,50.4,29.88,NW,315,13.6,15.9,99,0.00,,,0.30,pywws,2013-09-23 17:51:00,
2013-09-23 20:01:00,50.5,50.3,29.88,NW,315,13.6,19.0,99,0.00,,,0.30,pywws,2013-09-23 18:01:00,
2013-09-23 20:11:00,50.5,50.3,29.88,NW,315,13.0,20.6,99,0.00,,,0.30,pywws,2013-09-23 18:11:00,
2013-09-23 20:21:00,50.7,50.4,29.88,NW,315,13.6,20.6,99,0.00,,,0.30,pywws,2013-09-23 18:21:00,
2013-09-23 20:31:00,50.7,50.4,29.88,NW,315,13.6,23.5,99,0.00,,,0.30,pywws,2013-09-23 18:31:00,
2013-09-23 20:41:00,50.9,50.6,29.88,NW,315,13.6,19.0,99,0.00,,,0.30,pywws,2013-09-23 18:41:00,
2013-09-23 20:51:00,50.9,50.6,29.88,NW,315,13.6,18.3,99,0.00,,,0.30,pywws,2013-09-23 18:51:00,
2013-09-23 21:01:00,50.9,50.6,29.88,West,270,15.9,22.1,99,0.00,,,0.30,pywws,2013-09-23 19:01:00,
2013-09-23 21:11:00,50.9,50.6,29.88,NW,315,14.5,22.8,99,0.00,,,0.30,pywws,2013-09-23 19:11:00,
2013-09-23 21:21:00,50.7,50.4,29.87,NW,315,14.5,20.6,99,0.00,,,0.30,pywws,2013-09-23 19:21:00,
2013-09-23 21:31:00,50.7,50.4,29.87,NW,315,15.2,20.6,99,0.00,,,0.30,pywws,2013-09-23 19:31:00,
2013-09-23 21:41:00,50.9,50.6,29.87,NW,315,14.5,18.3,99,0.00,,,0.30,pywws,2013-09-23 19:41:00,
2013-09-23 21:51:00,51.1,50.8,29.87,NW,315,14.5,22.1,99,0.00,,,0.30,pywws,2013-09-23 19:51:00,
2013-09-23 22:01:00,50.9,50.6,29.87,NW,315,14.5,19.0,99,0.00,,,0.30,pywws,2013-09-23 20:01:00,
2013-09-23 22:11:00,50.9,50.6,29.86,NW,315,13.6,18.3,99,0.00,,,0.30,pywws,2013-09-23 20:11:00,
2013-09-23 22:21:00,50.5,50.3,29.87,NW,315,13.6,17.5,99,0.00,,,0.30,pywws,2013-09-23 20:21:00,
2013-09-23 22:31:00,50.5,50.3,29.87,NW,315,13.0,19.7,99,0.00,,,0.30,pywws,2013-09-23 20:31:00,
2013-09-23 22:41:00,50.5,50.3,29.87,NW,315,14.5,18.3,99,0.00,,,0.30,pywws,2013-09-23 20:41:00,
2013-09-23 22:51:00,50.5,50.3,29.87,NW,315,12.1,17.5,99,0.00,,,0.30,pywws,2013-09-23 20:51:00,
2013-09-23 23:01:00,50.5,50.3,29.87,NW,315,13.6,18.3,99,0.00,,,0.30,pywws,2013-09-23 21:01:00,
2013-09-23 23:11:00,50.5,50.3,29.87,NW,315,13.0,18.3,99,0.00,,,0.30,pywws,2013-09-23 21:11:00,
2013-09-23 23:21:00,50.5,50.3,29.86,West,270,15.2,21.2,99,0.00,,,0.30,pywws,2013-09-23 21:21:00,
2013-09-23 23:31:00,50.4,50.1,29.86,NW,315,15.9,24.4,99,0.00,,,0.30,pywws,2013-09-23 21:31:00,
2013-09-23 23:41:00,50.2,49.9,29.85,NW,315,15.2,20.6,99,0.00,,,0.30,pywws,2013-09-23 21:41:00,
2013-09-23 23:51:00,50.2,49.9,29.86,NW,315,14.5,22.1,99,0.00,,,0.30,pywws,2013-09-23 21:51:00,